Wind_Speed
47 48 49 49 49 49 50 51 52 53 53 53 54 55 55 56 56 55 55 55 56 56 57 57 56 55 55 54 52 51 50 49 48 45 44 43 43 43 43 43 43 43 42
46 48 49 49 49 49 50 50 52 53 53 53 54 55 55 56 56 56 55 56 56 56 56 57 57 56 55 56 54 53 52 51 50 48 46 46 45 44 44 44 43 43 43
45 47 48 49 49 49 50 51 52 53 53 52 52 53 54 55 56 57 56 55 56 56 56 57 57 56 56 55 54 54 53 52 51 50 49 48 48 47 46 46 45 45 45
43 45 47 48 48 49 50 51 51 51 52 53 52 52 54 55 56 56 56 56 56 55 56 57 58 58 57 56 55 55 54 53 52 52 51 50 49 48 48 47 47 46 46
42 44 46 48 49 49 48 49 50 50 51 53 53 54 54 54 55 55 56 57 57 57 57 57 57 58 57 58 57 55 55 54 53 52 53 52 50 49 49 49 48 47 47
42 43 44 46 47 47 47 49 49 49 49 50 51 51 52 53 54 55 55 55 56 57 58 58 58 59 58 58 57 56 55 55 54 54 54 52 50 50 49 49 50 50 49
41 42 42 42 44 45 46 47 47 48 47 48 48 46 47 50 51 53 55 55 55 56 56 57 57 58 58 57 55 55 55 55 55 54 54 54 53 53 53 52 51 51 50
40 40 40 41 43 43 44 45 46 47 47 48 49 48 48 48 50 52 53 55 56 57 57 57 57 58 58 57 56 55 55 56 56 56 55 54 54 54 54 53 52 51 51
38 38 39 40 41 43 43 44 44 46 47 48 48 48 48 49 50 50 52 54 54 55 55 56 57 57 56 57 58 57 56 57 57 56 56 55 55 55 56 56 54 53 53
36 37 37 39 40 41 41 41 42 44 46 47 48 48 47 48 49 50 51 52 53 53 54 55 56 56 57 57 58 58 58 58 58 58 58 57 57 56 56 56 55 55 54
35 34 35 35 37 39 40 40 41 43 44 45 46 46 46 47 48 49 50 51 52 54 54 53 54 53 54 55 57 57 57 58 59 60 60 59 58 57 57 57 57 56 55
34 34 34 35 36 37 38 39 41 42 42 43 44 44 45 45 46 47 48 49 50 51 52 53 53 53 53 54 55 56 57 57 59 60 61 61 59 59 58 58 58 57 56
32 32 33 33 35 37 38 39 39 40 42 43 43 44 45 46 46 47 48 49 49 50 50 51 52 53 53 53 54 55 56 57 58 59 60 61 60 59 59 59 58 58 58
31 32 33 33 34 36 38 39 39 40 41 42 42 43 45 46 46 47 47 48 49 50 50 51 51 52 53 52 53 54 54 55 55 57 58 60 60 61 61 61 60 59 60
30 31 31 32 33 35 36 37 38 38 39 41 42 43 44 45 45 47 47 48 49 49 50 50 50 51 52 52 53 54 55 55 55 56 56 57 58 59 60 62 62 61 60
29 29 29 30 31 33 34 35 37 37 38 39 40 41 43 43 44 45 47 47 48 49 49 49 49 49 50 51 51 52 53 54 54 54 55 56 57 58 58 59 60 60 60
27 28 28 29 29 31 32 34 34 35 36 37 38 39 40 41 42 44 45 47 48 48 48 48 48 49 49 50 51 52 51 52 53 54 54 54 55 57 57 57 57 58 58
26 26 27 27 28 29 30 32 34 34 34 34 36 37 37 39 40 41 42 44 46 48 49 48 48 48 48 49 50 50 51 52 52 52 53 53 53 54 54 54 55 56 56
25 25 25 25 27 27 28 30 32 33 33 33 34 36 37 38 39 41 42 42 44 46 47 48 48 48 47 48 48 49 50 50 51 51 52 53 53 53 53 53 54 54 55
24 23 24 24 25 25 26 27 28 30 31 32 33 35 37 38 39 39 40 42 43 43 44 45 46 47 47 47 47 48 48 49 50 50 51 51 52 53 53 53 53 53 53
24 23 23 23 24 24 25 26 27 28 28 29 31 32 34 35 36 37 38 40 41 41 42 42 43 44 45 46 47 47 48 48 49 49 50 51 51 51 52 53 54 53 53
23 22 22 23 23 24 24 25 26 27 28 28 29 30 31 33 34 35 36 37 37 38 39 40 41 42 43 43 44 45 46 46 47 48 49 50 50 51 51 52 52 53 52
22 22 22 22 23 23 23 24 24 25 25 27 27 28 29 30 32 33 34 34 35 36 37 37 38 39 41 42 42 43 44 45 45 46 46 47 47 48 48 49 49 50 50
22 21 21 21 22 22 23 24 25 25 25 26 26 27 27 28 30 31 31 32 32 33 34 35 36 37 38 39 39 40 41 42 43 44 44 44 44 44 45 46 46 46 46
20 20 19 19 19 20 21 22 23 24 24 24 24 25 26 27 28 29 29 30 30 31 31 32 33 34 35 36 37 38 38 39 40 41 42 42 42 42 42 43 44 44 44
19 19 18 18 18 18 18 18 18 19 19 20 21 21 22 23 24 25 26 27 28 29 29 30 31 32 33 34 35 36 37 38 38 39 39 39 40 40 41 41 42 42 43
Wind_Direction
254 253 252 252 252 251 249 248 247 248 247 246 245 246 246 247 246 246 245 244 242 242 240 239 240 241 242 242 242 243 244 244 244 244 245 246 247 247 249 250 251 251 252
254 253 253 253 253 252 249 249 247 248 247 248 247 246 246 247 246 246 246 244 243 242 241 240 240 241 242 242 242 243 243 244 245 245 245 246 247 247 248 250 251 251 251
257 256 255 254 253 252 250 249 248 248 248 248 247 247 246 246 246 246 245 244 243 242 241 241 240 240 242 242 242 243 244 244 245 246 246 247 247 248 248 249 251 252 253
260 258 256 255 253 253 252 251 250 249 249 248 248 248 247 246 245 244 244 242 241 241 241 241 240 241 242 243 244 244 244 244 244 246 247 247 248 248 249 250 252 253 254
262 260 258 255 253 253 252 252 252 251 251 250 249 250 248 247 245 244 243 241 241 240 240 240 240 241 242 244 244 243 244 244 244 245 247 248 247 248 249 251 252 254 255
265 263 260 257 253 252 251 250 250 249 250 250 250 250 249 247 245 243 242 241 240 240 240 239 241 242 243 243 242 243 244 245 246 245 246 247 248 249 249 251 253 254 256
267 263 259 256 253 253 252 251 250 249 250 248 248 249 247 245 244 244 243 241 240 240 240 240 240 242 242 243 242 244 244 245 246 246 247 248 249 250 251 252 254 255 256
268 264 260 256 254 252 252 252 251 249 249 247 247 248 246 243 243 243 242 241 240 239 239 239 240 241 242 242 243 243 244 245 245 246 247 248 249 251 252 252 254 255 256
267 264 260 257 255 253 253 252 251 250 250 249 248 248 246 244 243 244 243 242 241 241 241 241 241 241 242 243 243 243 244 245 245 245 246 247 249 250 252 253 254 255 256
267 265 262 258 255 253 252 251 251 250 250 250 248 247 247 246 245 245 243 241 241 241 241 242 243 244 243 244 244 244 244 244 245 245 246 247 248 249 251 252 253 255 256
270 266 263 260 256 254 254 253 252 250 250 249 248 247 247 246 245 245 243 243 242 241 241 242 243 244 244 245 245 245 245 245 245 245 246 247 248 248 250 252 254 256 256
269 266 263 261 258 255 255 254 252 251 249 247 247 248 247 247 246 245 244 243 243 242 243 243 243 244 245 246 246 245 245 246 245 245 245 245 246 248 250 252 254 255 255
270 267 264 263 260 257 254 254 253 252 250 248 248 249 248 247 247 246 245 243 243 244 244 244 244 244 245 245 246 246 247 246 247 246 245 245 246 248 250 252 253 254 254
272 268 267 265 261 258 255 254 254 253 250 248 248 248 247 246 246 245 244 243 243 245 246 245 246 246 246 246 246 246 246 246 246 246 246 246 247 247 249 251 253 254 254
273 269 268 266 264 260 257 256 254 252 252 250 249 248 247 246 244 244 244 244 243 244 244 245 247 247 246 246 246 246 246 246 246 245 245 247 248 248 249 250 252 253 254
276 271 270 268 264 261 259 257 255 254 252 251 251 249 247 246 245 243 243 243 243 244 245 246 247 247 247 247 248 247 247 246 246 246 248 249 249 249 249 251 252 253 253
279 273 270 267 265 263 261 258 256 255 254 252 251 249 247 245 244 243 243 243 242 242 243 244 246 247 247 248 248 247 247 246 247 248 249 249 250 250 250 251 251 252 253
279 275 270 267 265 265 264 260 257 255 254 253 251 248 246 245 244 243 243 244 243 243 244 245 246 246 247 247 248 247 247 247 248 249 249 249 250 249 249 250 251 252 253
280 276 271 269 268 267 265 263 260 257 255 253 252 248 248 248 247 246 245 245 245 244 245 245 246 245 246 247 247 247 247 247 248 248 249 249 249 250 250 250 251 252 253
281 277 274 273 272 269 266 264 262 258 255 255 253 250 249 249 248 247 247 247 246 246 246 246 246 246 246 246 246 246 246 247 248 249 249 249 250 250 251 251 251 252 254
282 279 277 275 273 272 268 265 262 260 258 257 255 253 251 250 249 248 248 247 248 248 247 245 245 246 247 247 247 247 247 248 248 249 249 249 250 251 251 252 252 253 255
282 279 278 276 274 271 268 264 262 261 259 258 256 254 253 253 251 249 248 249 250 249 247 246 245 245 246 246 246 246 247 248 248 249 249 250 251 252 252 253 253 254 256
284 282 281 278 276 272 269 265 264 263 261 260 259 256 254 252 251 250 249 249 249 249 248 247 246 246 246 246 246 246 247 248 248 249 250 250 251 252 253 253 254 256 257
288 286 285 280 277 275 272 270 268 265 264 262 260 258 255 253 251 250 249 249 249 249 248 248 247 247 246 246 246 246 247 247 248 249 250 251 252 252 253 254 254 255 257
291 290 287 283 280 278 275 272 270 268 265 262 261 259 257 254 251 250 249 249 249 249 249 248 248 247 246 245 246 246 247 247 248 248 250 251 251 251 252 253 254 255 256
293 291 290 287 285 282 277 274 270 266 264 262 261 259 257 254 252 250 250 249 249 248 248 248 249 248 247 247 247 248 248 248 248 249 250 251 251 251 252 253 254 255 256
Height
5583 5585 5587 5589 5591 5594 5597 5601 5604 5608 5611 5615 5619 5623 5627 5631 5635 5639 5644 5648 5653 5658 5663 5668 5674 5678 5683 5688 5693 5697 5701 5706 5710 5715 5718 5721 5724 5727 5730 5733 5736 5739 5741
5571 5572 5573 5575 5577 5580 5583 5586 5590 5594 5597 5601 5604 5608 5612 5616 5620 5625 5629 5634 5639 5644 5649 5655 5660 5665 5670 5675 5680 5685 5689 5694 5698 5703 5706 5710 5713 5716 5719 5721 5724 5727 5730
5557 5559 5560 5562 5563 5566 5569 5572 5576 5579 5583 5586 5590 5594 5598 5602 5606 5610 5615 5620 5625 5630 5635 5641 5646 5651 5657 5662 5667 5672 5677 5681 5686 5690 5694 5698 5701 5703 5706 5709 5712 5715 5718
5544 5545 5546 5548 5550 5553 5555 5558 5561 5565 5569 5572 5576 5579 5583 5588 5592 5596 5600 5606 5611 5616 5621 5626 5632 5637 5643 5648 5653 5658 5663 5668 5673 5677 5681 5685 5688 5691 5693 5697 5700 5703 5706
5531 5531 5533 5534 5537 5539 5542 5545 5548 5550 5554 5558 5561 5565 5568 5573 5577 5581 5586 5591 5597 5602 5607 5613 5618 5624 5629 5634 5639 5645 5649 5654 5659 5664 5668 5672 5675 5678 5682 5685 5688 5691 5694
5518 5518 5519 5520 5523 5526 5528 5531 5534 5537 5540 5544 5547 5550 5554 5558 5563 5567 5572 5577 5582 5588 5593 5599 5604 5610 5615 5620 5625 5630 5635 5640 5646 5650 5655 5659 5663 5666 5669 5672 5675 5678 5682
5505 5505 5506 5507 5510 5512 5515 5518 5521 5524 5527 5530 5533 5537 5540 5545 5549 5553 5558 5562 5568 5573 5579 5585 5590 5596 5601 5606 5611 5616 5621 5626 5631 5637 5641 5646 5650 5654 5657 5659 5662 5665 5669
5494 5493 5494 5495 5497 5500 5503 5505 5508 5511 5514 5517 5520 5523 5527 5531 5535 5540 5543 5549 5554 5559 5565 5570 5576 5582 5586 5591 5596 5601 5606 5612 5617 5622 5628 5633 5636 5638 5642 5645 5648 5652 5655
5484 5483 5484 5485 5486 5489 5491 5493 5496 5499 5501 5504 5507 5510 5514 5518 5522 5526 5530 5535 5540 5545 5550 5556 5561 5566 5572 5576 5581 5587 5592 5597 5601 5606 5611 5616 5620 5624 5627 5630 5634 5637 5641
5474 5474 5474 5474 5476 5478 5480 5482 5484 5486 5489 5491 5495 5497 5501 5505 5509 5513 5516 5521 5527 5532 5536 5541 5547 5552 5556 5561 5565 5571 5576 5582 5586 5591 5595 5600 5604 5609 5612 5616 5620 5623 5626
5464 5464 5464 5464 5465 5467 5469 5470 5472 5475 5477 5480 5483 5486 5489 5492 5495 5499 5503 5507 5512 5518 5523 5528 5533 5537 5542 5546 5550 5555 5561 5566 5570 5575 5580 5585 5589 5594 5598 5602 5605 5608 5612
5455 5454 5455 5455 5455 5456 5458 5459 5461 5463 5465 5468 5471 5473 5476 5479 5483 5486 5490 5495 5499 5505 5510 5515 5519 5524 5528 5532 5536 5541 5545 5549 5554 5558 5564 5569 5574 5579 5583 5587 5590 5593 5596
5445 5445 5445 5445 5445 5446 5447 5448 5450 5452 5454 5457 5459 5462 5465 5468 5471 5474 5478 5482 5487 5491 5496 5501 5505 5509 5514 5518 5522 5526 5530 5534 5538 5543 5548 5553 5558 5563 5567 5571 5574 5577 5580
5435 5435 5434 5435 5435 5436 5437 5437 5439 5441 5442 5445 5447 5450 5452 5455 5458 5462 5465 5470 5474 5478 5483 5487 5491 5495 5500 5504 5508 5511 5515 5519 5523 5528 5532 5537 5541 5546 5551 5554 5558 5561 5564
5425 5425 5424 5424 5424 5425 5426 5427 5428 5429 5431 5433 5435 5438 5441 5444 5446 5450 5453 5458 5461 5466 5470 5474 5478 5482 5486 5490 5493 5497 5501 5505 5509 5513 5517 5521 5525 5529 5534 5538 5542 5545 5548
5416 5415 5415 5414 5414 5414 5415 5416 5416 5418 5419 5421 5423 5425 5428 5431 5434 5437 5441 5444 5448 5452 5457 5461 5465 5469 5472 5476 5479 5483 5487 5491 5494 5498 5502 5506 5509 5513 5517 5522 5525 5528 5532
5407 5406 5405 5405 5405 5404 5405 5406 5406 5408 5408 5410 5411 5413 5415 5418 5421 5424 5428 5431 5435 5439 5443 5447 5451 5455 5458 5462 5465 5469 5473 5477 5480 5484 5487 5491 5494 5498 5502 5506 5509 5512 5516
5399 5397 5396 5396 5396 5395 5395 5395 5396 5397 5399 5399 5401 5402 5404 5406 5409 5412 5415 5419 5422 5426 5430 5434 5438 5441 5445 5448 5452 5455 5459 5463 5466 5470 5473 5477 5480 5483 5487 5490 5494 5497 5500
5390 5389 5388 5387 5386 5386 5385 5386 5386 5387 5388 5390 5390 5392 5393 5395 5398 5401 5403 5406 5410 5414 5417 5421 5425 5428 5432 5435 5438 5442 5446 5449 5453 5456 5459 5463 5466 5470 5473 5476 5479 5482 5485
5382 5380 5379 5378 5377 5377 5376 5377 5377 5377 5378 5380 5381 5382 5383 5385 5387 5390 5392 5395 5398 5402 5405 5408 5411 5415 5419 5422 5425 5429 5432 5436 5439 5442 5445 5449 5452 5456 5459 5462 5465 5468 5471
5374 5373 5371 5370 5369 5369 5368 5368 5368 5369 5369 5370 5371 5372 5374 5375 5377 5380 5382 5385 5387 5390 5393 5396 5399 5402 5406 5409 5412 5415 5419 5422 5426 5429 5432 5435 5438 5442 5445 5448 5451 5453 5456
5367 5365 5364 5363 5362 5361 5360 5360 5360 5360 5361 5361 5362 5363 5364 5366 5368 5370 5372 5374 5376 5379 5382 5385 5388 5391 5394 5396 5399 5402 5406 5409 5412 5415 5418 5421 5424 5427 5430 5433 5436 5439 5441
5360 5358 5357 5355 5354 5353 5353 5352 5352 5352 5352 5353 5353 5354 5355 5356 5358 5360 5362 5364 5366 5368 5371 5373 5376 5379 5382 5384 5387 5390 5393 5396 5399 5402 5404 5407 5410 5413 5416 5419 5422 5425 5427
5352 5351 5349 5348 5347 5346 5345 5344 5344 5344 5344 5344 5345 5345 5346 5347 5349 5351 5352 5354 5356 5358 5360 5363 5365 5368 5370 5373 5375 5378 5381 5383 5386 5389 5392 5395 5397 5400 5403 5406 5408 5411 5413
5346 5344 5342 5341 5340 5338 5337 5337 5336 5336 5336 5336 5337 5337 5338 5339 5340 5341 5343 5345 5347 5348 5350 5352 5355 5357 5360 5362 5364 5367 5369 5372 5374 5377 5380 5382 5385 5387 5390 5393 5395 5398 5400
5340 5338 5336 5335 5333 5332 5331 5330 5329 5329 5329 5329 5329 5329 5330 5330 5332 5333 5334 5336 5338 5340 5341 5343 5345 5347 5350 5352 5354 5356 5358 5361 5363 5365 5368 5371 5373 5375 5378 5380 5383 5385 5387